This demonstration page uses our WeatherBlox Daily Observations layout. Learn more.

Left ArrowRight Arrow

Hourly Observations for September 20, 2022

Temp ( °F °C ) Dew Point ( °F °C ) Humidity (%) Winds ( mph kmh ) Pressure ( in mb ) Visibility ( mi km ) Precip ( " mm )
12:53 am 00:53 Mostly Clear 79 26.1 62 16.7 56 56 ESE 8 13 29.96 1015 10 16 0.00 0.00
1:53 am 01:53 Clear 76 24.4 61 16.1 60 60 N 12 19 29.94 1014 10 16 0.00 0.00
2:53 am 02:53 Clear 78 25.6 62 16.7 58 58 ENE 10 17 29.93 1014 10 16 0.00 0.00
3:53 am 03:53 Clear 78 25.6 64 17.8 62 62 NE 13 20 29.93 1014 10 16 0.00 0.00
4:53 am 04:53 Clear 78 25.6 61 16.1 56 56 E 6 9 29.93 1014 10 16 0.00 0.00
5:53 am 05:53 Clear 75 23.9 66 18.9 74 74 ESE 7 11 29.94 1014 10 16 0.00 0.00
6:53 am 06:53 Sunny 76 24.4 65 18.3 69 69 ESE 6 9 29.95 1014 10 16 0.00 0.00
7:53 am 07:53 Sunny 81 27.2 67 19.4 62 62 SSE 10 17 29.96 1014 10 16 0.00 0.00
8:53 am 08:53 Sunny 82 27.8 70 21.1 67 67 S 10 17 29.97 1015 10 16 0.00 0.00
9:53 am 09:53 Mostly Sunny 84 28.9 70 21.1 63 63 SSW 10 17 29.98 1015 10 16 0.00 0.00
10:53 am 10:53 Partly Cloudy 85 29.4 71 21.7 63 63 S 12 19 29.97 1015 10 16 0.00 0.00
11:53 am 11:53 Partly Cloudy 86 30 70 21.1 59 59 SSW 12 19 29.96 1015 10 16 0.00 0.00
12:53 pm 12:53 Partly Cloudy 85 29.4 69 20.6 59 59 WSW 10 17 29.95 1014 10 16 0.00 0.00
1:53 pm 13:53 Sunny 86 30 67 19.4 53 53 WSW 10 17 29.93 1014 10 16 0.00 0.00
2:23 pm 14:23 Mostly Sunny 86 30 68 20 55 55 WSW 10 17 29.92 1013 N/A 0.00 0.00
2:53 pm 14:53 Mostly Cloudy 86 30 68 20 55 55 WSW 12 19 29.91 1013 10 16 0.00 0.00
3:53 pm 15:53 Mostly Cloudy 84 28.9 72 22.2 67 67 SW 10 17 29.91 1013 10 16 0.00 0.00
4:53 pm 16:53 Cloudy 82 27.8 72 22.2 72 72 WSW 12 19 29.92 1013 10 16 0.00 0.00
5:54 pm 17:54 Mostly Cloudy 81 27.2 73 22.8 77 77 S 9 15 29.93 1014 10 16 0.00 0.00
6:53 pm 18:53 Mostly Cloudy 81 27.2 70 21.1 69 69 SSE 9 15 29.94 1014 10 16 0.00 0.00
7:53 pm 19:53 Mostly Clear 81 27.2 68 20 65 65 SSE 10 17 29.96 1015 10 16 0.00 0.00

Powered by AerisWeather